Regional Weather Roundup
Issued by NWS

Home | Current Version | Previous Version | Text Only | Print | Product List | Glossary On
Versions: 1 2 3 4 5 6 7 8 9 10 11 12 13 14 15 16 17 18 19 20 21 22 23 24 25 26 27 28 29 30 31 32 33 34 35 36 37 38 39 40 41 42 43 44 45 46 47 48 49 50
000
ASUS43 KDTX 291310
RWRMI
MICHIGAN HOURLY REGIONAL WEATHER ROUNDUP
NATIONAL WEATHER SERVICE DETROIT/PONTIAC MI
900 AM EDT WED JUL 29 2015

NOTE: "FAIR" INDICATES FEW OR NO CLOUDS BELOW 12,000 FEET WITH NO
SIGNIFICANT WEATHER AND/OR OBSTRUCTION TO VISIBILITY.

MIZ047>049-052>055-059>063-066>070-074>076-081>083-291400-
SOUTHEAST LOWER MICHIGAN

CITY           SKY/WX    TMP DP  RH WIND       PRES   REMARKS
ADRIAN         SUNNY     74  67  78 SW3       29.99R
ALMA           PTSUNNY   73  66  78 S6        29.93F
ANN ARBOR      PTSUNNY   76  69  79 CALM      29.98R
BAD AXE        MOSUNNY   74  64  70 S5        29.96S
DETROIT CITY   MOSUNNY   78  68  71 S5        29.97S
DETROIT        CLOUDY    76  70  82 SE3       29.98R
FLINT          MOSUNNY   80  67  64 S7        29.96S
GROSSE ILE     SUNNY     79  73  83 S3        29.96S
HILLSDALE      SUNNY     78  72  81 SW6       29.99S
HOWELL         MOSUNNY   77  66  69 S6        29.98R

CITY           SKY/WX    TMP DP  RH WIND       PRES   REMARKS
JACKSON        MOSUNNY   78  68  71 SW7       29.97S
LAMBERTVILLE   SUNNY     79  69  72 CALM      29.98S
LANSING        PTSUNNY   76  65  68 S8        29.96R
LAPEER         NOT AVBL
MASON          MOSUNNY   73  65  76 CALM      29.96F
MONROE         SUNNY     76  69  78 MISG      29.97R
MT. CLEMENS    PTSUNNY   77  72  83 VRB3      29.95S
PONTIAC        CLOUDY    76  68  76 S7        29.97S
PORT HOPE        N/A     77  62  59 SW7       29.93S
PORT HURON     MOSUNNY   73  73 100 S3        29.97S
TRI CITIES     CLOUDY    75  65  70 SW7       29.95R
YPSILANTI      CLOUDY    78  70  76 CALM      29.98S
$$
MIZ043>046-050>051-056>058-064>065-071>073-077>080-291400-
SOUTHWEST LOWER MICHIGAN

CITY           SKY/WX    TMP DP  RH WIND       PRES   REMARKS
BATTLE CREEK   PTSUNNY   76  68  76 SW7       29.96S
BENTON HARBOR  CLOUDY    77  72  84 W7        29.94S
BIG RAPIDS     PTSUNNY   75  69  79 SW5       29.93R
COLDWATER      PTSUNNY   77  69  76 SW5       29.98R
HOLLAND        CLOUDY    79  73  82 W8        29.94S
GRAND RAPIDS   CLOUDY    76  69  79 SW7       29.94S
KALAMAZOO      PTSUNNY   78  69  73 SW6       29.96R
MARSHALL       PTSUNNY   78  69  75 S5        29.97R
MUSKEGON       CLOUDY    77  71  82 SW8       29.92S
$$
MIZ016>042-291400-
NORTHERN LOWER MICHIGAN

CITY           SKY/WX    TMP DP  RH WIND       PRES   REMARKS
ALPENA         MOSUNNY   79  62  56 S7        29.90F
BEAVER ISLAND  PTSUNNY   76  69  77 SW12      29.84R
BELLAIRE       MOSUNNY   78  67  67 S5        29.88S
CADILLAC       PTSUNNY   75  67  77 SW9       29.94R
CHARLEVOIX     PTSUNNY   78  67  69 S8        29.89S
FRANKFORT      CLOUDY    74  71  89 SW9       29.89R
GAYLORD        PTSUNNY   77  66  68 SW13      29.91S
GRAYLING       MOSUNNY   76  65  67 SW8       29.93R
HARBOR SPRINGS CLOUDY    76  67  73 SW7       29.86S
HOUGHTON LAKE  MOSUNNY   76  65  68 SW8       29.93S
MANISTEE       PTSUNNY   73  68  83 W5        29.90S
OSCODA         PTSUNNY   76  66  71 S6        29.92F
PELLSTON       PTSUNNY   79  66  64 SW7       29.86S
TRAVERSE CITY  PTSUNNY   80  69  69 VRB6      29.85F
$$
MIZ007>008-015-291400-
EASTERN UPPER MICHIGAN

CITY           SKY/WX    TMP DP  RH WIND       PRES   REMARKS
KINROSS        MOSUNNY   79  66  65 S6        29.85R
MACKINAC ISLAN PTSUNNY   76  65  67 S8        29.85R
$$
MIZ004>006-011>014-085-291400-
CENTRAL UPPER MICHIGAN

CITY           SKY/WX    TMP DP  RH WIND       PRES   REMARKS
MANISTIQUE     CLOUDY    72  68  88 SW7       29.81S
ESCANABA       CLOUDY    75  63  64 W13       29.81S
MENOMINEE      PTSUNNY   73  55  53 W8        29.86R
SAWYER-GWINN   MOSUNNY   72  55  56 W17       29.81R
$$
MIZ001>003-009>011-084-291400-
WESTERN UPPER MICHIGAN

CITY           SKY/WX    TMP DP  RH WIND       PRES   REMARKS
IRON MOUNTAIN  MOSUNNY   72  53  51 W10G21    29.84S
HOUGHTON       SUNNY     71  49  45 SW16G29   29.73S
COPPER HARBOR    N/A     74  51  44 W8G22     29.70R
IRONWOOD       SUNNY     66  52  59 SW20G30   29.75S
$$

ABBREVIATIONS USED IN REMARKS
   TC - TEMPERATURE IN CELSIUS
  WCI - WIND CHILL INDEX
   HX - HEAT INDEX
  VSB - VISIBILITY




USA.gov is the U.S. government's official web portal to all federal, state and local government web resources and services.